www.pogodaiklimat.ru

Погода и климат >> Архив погоды >> Пакистан >> Сахивал


ПОГОДА в Сахивале

  • Прогноз погоды в Сахивале
  • Монитор погоды в Сахивале

АРХИВ ПОГОДЫ в Сахивале

Время (UTC), дата Ветер
(напр.,м/с)
 
Видим.   Явления Облачность Т
(С)
Тd
(С)
f
(%)
Тe
(С)
Тes
(С)
Комфортность P
(гПа)
Po
(гПа)
Тmin
(С)
Tmax
(С)
R
(мм)
R24
(мм)
S
(см)
06 14.05 СВ 1 4000 м мгла ясно +32.0 +18.2 44 +37 +60 опасность
солнечного
удара
1005.9 987.1
12 14.05 штиль 0 4000 м мгла ясно +35.5 +20.9 43 +43 +48 опасность
перегрева
1002.1 983.3 +37.4
15 14.05 штиль 0 4000 м дым 3/0
[Ac trans]
+31.5 +20.6 52 +38 +38 очень
душно
1001.9 983.1
18 14.05 СВ 1 4000 м дым ясно +28.5 +21.1 64 +36 +36 очень
душно
1003.6 984.2
21 14.05 СВ 1 4000 м дым 5/0
[Ac As]
+26.5 +20.2 68 +33 +33 очень
душно
1002.4 983.3
00 15.05 ЮЗ 18 2000 м сильная пыльная буря 10/5 1200 м
[Sc Ac As]
+25.0 +18.8 68 +30 +30 душно 1003.5 983.9 0.9
03 15.05 СВ 13 2000 м сильная пыльная буря {метель} 10/5 1200 м
[Sc Ac As]
+23.0 +20.7 87 +30 +30 очень
душно
1006.7 987.0 +20.0 9
06 15.05 ЮЗ 3 4000 м дым 8/4 1200 м
[Sc Ac trans]
+28.0 +18.8 57 +33 +39 очень
душно
1008.0 988.6
09 15.05 ЮЗ 2 4000 м 8/4 1200 м
[Sc Ac As]
+30.0 +20.3 56 +37 +42 очень
душно
1006.9 987.9
12 15.05 ЮВ 1 4000 м 8/4 1200 м
[Sc Ac trans]
+30.0 +12.2 33 +31 +32 жарко 1005.0 985.8 +32.5
15 15.05 штиль 0 4000 м 4/0
[Ac trans]
+29.0 +22.4 68 +38 +38 очень
душно
1005.4 986.4
18 15.05 штиль 0 4000 м 4/0
[Ac trans]
+25.0 +20.5 76 +31 +31 очень
душно
1006.2 986.6
21 15.05 СЗ 4 4000 м 4/0
[Ac trans]
+23.0 +19.1 79 +29 +29 очень
душно
1005.8 986.4
00 16.05 штиль 0 4000 м 8/4 1000 м
[Sc Ac trans]
+22.0 +18.9 83 +27 +27 душно 1007.0 987.3
03 16.05 СЗ 1 4000 м дым 4/0
[Ac trans]
+25.0 +18.8 68 +30 +36 душно 1007.9 988.3 +21.0
06 16.05 С 2 4000 м дым 6/0
[Ci fib]
+28.5 +18.5 55 +34 +51 опасность
солнечного
удара
1008.9 989.9
09 16.05 ЮЗ 2 4000 м мгла 4/0
[Ac trans]
+32.5 +19.8 47 +38 +52 опасность
солнечного
удара
1008.0 989.1
12 16.05 СВ 2 4000 м мгла 4/0
[Ac trans]
+33.0 +19.8 46 +39 +42 очень
душно
1005.6 986.6 +33.5
15 16.05 штиль 0 4000 м дым ясно +30.0 +21.1 59 +38 +38 очень
душно
1005.8 986.8
18 16.05 штиль 0 4000 м дым ясно +28.0 +20.5 64 +35 +35 очень
душно
1007.1 988.0
21 16.05 штиль 0 4000 м дым ясно +26.0 +19.9 69 +32 +32 очень
душно
1007.0 987.7
00 17.05 ЮЗ 9 2000 м пыльный позёмок {гроза} 10/5 1200 м
[Sc Ac As]
+22.5 +19.4 83 +29 +29 очень
душно
1007.5 987.8
03 17.05 СЗ 1 4000 м 10/5 1200 м
[Sc Ac As]
+22.5 +20.2 87 +29 +30 очень
душно
1008.2 988.5 +21.0 1
06 17.05 Ю 3 4000 м 9/3 1200 м
[Sc Ac As]
+27.0 +21.8 73 +35 +39 очень
душно
1008.1 989.1
09 17.05 В 2 4000 м 10/5 1200 м
[Sc Ac As]
+26.0 +20.7 73 +33 +35 очень
душно
1008.0 988.7
12 17.05 СВ 2 4000 м 6/0
[Ac As]
+27.0 +21.0 70 +34 +36 очень
душно
1006.1 986.5 +28.0
15 17.05 штиль 0 4000 м 4/0
[Ac trans]
+26.0 +20.7 73 +33 +33 очень
душно
1006.6 987.4
18 17.05 СВ 1 4000 м 4/0
[Ac trans]
+22.5 +19.4 83 +29 +29 очень
душно
1008.1 988.4
21 17.05 СВ 1 4000 м 4/0
[Ac trans]
+21.0 +18.6 86 +27 +27 душно 1007.7 988.1
00 18.05 штиль 0 4000 м ясно +20.0 +17.6 86 +23 +23 комфорт 1007.8 987.8
03 18.05 СЗ 2 2000 м дым ясно +24.0 +17.6 67 +28 +35 душно 1007.9 988.2 +19.0
06 18.05 ЮВ 2 2000 м дым ясно +29.0 +19.1 55 +34 +54 опасность
солнечного
удара
1007.9 988.4
09 18.05 ЮВ 2 4000 м мгла ясно +33.0 +16.6 38 +36 +54 опасность
солнечного
удара
1007.2 988.4
12 18.05 ЮЗ 3 4000 м мгла 3/0
[Ac trans]
+34.0 +18.0 39 +38 +41 очень
душно
1005.5 986.9 +34.5
15 18.05 штиль 0 4000 м дым ясно +31.0 +20.6 54 +38 +38 очень
душно
1005.7 986.8
18 18.05 штиль 0 4000 м дым 3/0
[Ac trans]
+27.5 +21.6 70 +35 +35 очень
душно
1006.5 987.5
21 18.05 штиль 0 4000 м дым 3/0
[Ac trans]
+25.5 +21.0 76 +32 +32 очень
душно
1005.8 986.6
00 19.05 штиль 0 4000 м дым ясно +23.5 +19.6 79 +29 +29 душно 1006.2 986.8
03 19.05 штиль 0 2000 м дым ясно +28.5 +20.2 61 +35 +44 очень
душно
1006.8 987.8 +22.5
06 19.05 ЮВ 3 4000 м мгла ясно +33.5 +19.2 43 +39 +55 опасность
солнечного
удара
1006.8 988.2
09 19.05 ЮВ 3 4000 м мгла ясно +36.0 +19.7 39 +42 +56 опасность
перегрева
1006.2 987.6
12 19.05 ЮЗ 3 4000 м мгла ясно +37.5 +19.8 36 +43 +46 опасность
перегрева
1003.3 984.9 +38.0
15 19.05 штиль 0 4000 м дым 5/0
[Ac As]
+33.0 +22.1 53 +42 +42 опасность
перегрева
1004.6 985.8
18 19.05 СЗ 8 2000 м пыльный позёмок 3/0
[Ac trans]
+29.0 +18.2 52 +34 +34 очень
душно
1007.6 988.6
21 19.05 СЗ 2 4000 м дым 4/0
[Ac As]
+27.0 +21.8 73 +35 +35 очень
душно
1005.9 986.7
00 20.05 СЗ 2 4000 м дым 4/0
[Ac As]
+23.5 +18.0 71 +28 +28 душно 1007.4 988.0
03 20.05 штиль 0 4000 м дым 4/0
[Ac As]
+27.5 +17.2 53 +31 +38 душно 1009.2 990.2 +22.5
06 20.05 СЗ 2 4000 м мгла ясно +32.5 +16.9 39 +36 +56 опасность
солнечного
удара
1010.0 991.0
09 20.05 СЗ 2 4000 м мгла 4/0
[Ac As]
+37.0 +14.9 27 +38 +51 опасность
солнечного
удара
1008.3 989.7
12 20.05 штиль 0 4000 м мгла ясно +36.0 +15.6 30 +38 +43 очень
душно
1006.2 987.8 +37.2
00 21.05 штиль 0 4000 м дым ясно +25.0 +18.8 68 +30 +30 душно 1006.7 987.6

 

Местоположение метеостанции Сахивал (Пакистан): широта 30.66 долгота 73.02 высота над уровнем моря 169 м.

В архиве по умолчанию представлена погода в Сахивале за последнюю неделю. Архивные данные за месяц целиком и за предыдущие месяцы, начиная с января 2011 года, Вы можете получить, выбрав интересующий диапазон дат из раскрывающегося списка и нажав кнопку "Ввод!".


*Определитесь, кто Вы:
робот инопланетянин человек

Внимание! Время в таблицах - всемирное. Для получения местного времени необходимо прибавить поправку, которая равна 5 ч.

Смотрите также архив погоды в соседних городах и на ближайших метеорологических станциях:

Погода в Окаре (Пакистан) (42 км)
Погода в Тоба Тек Сингх (Пакистан) (63 км)
Погода на Авиабазе Raifiqui (Пакистан) (80 км)
Погода в Бахавалнагаре (Пакистан) (82 км)
Погода в Фейсалабаде (Пакистан) (86 км)
Погода в Джанге (Пакистан) (95 км)
Погода в Ханевале (Пакистан) (115 км)
Погода в Шри-Ганганагаре (Раджастхан, Индия) (117 км)
Погода в Касуре (Пакистан) (147 км)
Погода в Саргодхе (Пакистан) (158 км)

Пояснения к столбцам:

Ветер - указаны скорость ветра в м/с - средняя за 10 мин, порывы в срок и между сроками (в фигурных скобках) и направление, откуда дует ветер: С - северный, СВ - северо-восточный, В - восточный, ЮВ - юго-восточный, Ю - южный, ЮЗ - юго-западный, З - западный, СЗ - северо-западный.
Видимость - горизонтальная дальность видимости в метрах или километрах. При видимости от 1 до 10 км при отсутствии осадков обычно наблюдается дымка, при ухудшении видимости до 1 км и менее - туман. В сухую погоду видимость может ухудшаться дымом, пылью или мглою.
Явления - указаны атмосферные явления, наблюдавшиеся в срок или в последний час перед сроком; фигурными скобками обозначены явления, наблюдавшиеся между сроками (за 1-3 часа до срока); квадратными скобками обозначены град или гололедные отложения с указанием их диаметра в мм.
Облачность - указаны через наклонную черту общая и нижняя облачность в баллах и высота нижней границы облаков в метрах; квадратными скобками обозначены формы облаков: Ci - перистые, Cs - перисто-слоистые, Cc - перисто-кучевые, Ac - высококучевые, As - высокослоистые, Sc - слоисто-кучевые, Ns - слоисто-дождевые, Cu - кучевые, Cb - кучево-дождевые. Подробнее классификацию облаков см. в Атласе облаков (PDF).
T - Температура воздуха - температура, измеренная на высоте 2 м над землей.
Td - Температура точки росы - температура, при понижении до которой содержащийся в воздухе водяной пар достигнет насыщения.
f - Относительная влажность воздуха - влажноcть воздуха, измеренная на высоте 2 м над землей.
Te - Эффективная температура - температура, которую ощущает одетый по сезону человек в тени. Характеристика душности погоды. При расчете учитывается влияние влажности воздуха и скорости ветра на теплоощущения человека.
Tes - Эффективная температура на солнце - температура, которую ощущает человек, с поправкой на солнечный нагрев. Характеристика знойности погоды. Зависит от высоты солнца над горизонтом, облачности и скорости ветра. Ночью, в пасмурную погоду, а также при ветре 12 м/с и более поправка равна нулю.
P - Атмосферное давление - приведенное к уровню моря атмосферное давление.
Po - Атмосферное давление - измеренное на уровне метеостанции атмосферное давление.
Tmin - Минимальная температура - минимум температуры воздуха на высоте 2 м над землей.
Tmax - Максимальная температура - максимум температуры воздуха на высоте 2 м над землей.
R - Количество осадков - Количество выпавших осадков за период времени, мм. При наведении курсора мыши на число - период времени, за который выпало указанное количество осадков.
R24 - Количество осадков - Количество выпавших осадков за 24 часа, мм.
S - Снежный покров - Высота снежного покрова, см. При наведении курсора мыши на число - состояние снежного покрова и степень покрытия местности в баллах.